This demonstration page uses our WeatherBlox Daily Observations layout. Learn more.

Left ArrowRight Arrow

Hourly Observations for January 11, 2020

Temp ( °F °C ) Dew Point ( °F °C ) Humidity (%) Winds ( mph kmh ) Pressure ( in mb ) Visibility ( mi km ) Precip ( " mm )
12:25 am 00:25 Cloudy 62 16.7 57 13.9 84 84 SE 13 20 30.22 1023 10 16 0.00 0.00
12:53 am 00:53 Cloudy 62 16.7 58 14.4 86 86 SE 12 19 30.20 1023 10 16 0.00 0.00
1:17 am 01:17 Cloudy 62 16.7 58 14.4 86 86 SE 12 19 30.20 1023 10 16 0.00 0.00
1:53 am 01:53 Cloudy 63 17.2 58 14.4 84 84 SE 10 17 30.18 1022 10 16 0.00 0.00
2:53 am 02:53 Cloudy 63 17.2 59 15 87 87 SE 10 17 30.15 1021 10 16 0.00 0.00
3:53 am 03:53 Cloudy 64 17.8 60 15.6 87 87 SSE 8 13 30.14 1021 10 16 0.00 0.00
4:14 am 04:14 Cloudy 64 17.8 60 15.6 87 87 SSE 10 17 30.14 1020 10 16 0.00 0.00
4:53 am 04:53 Cloudy 65 18.3 59 15 81 81 SSE 14 22 30.10 1019 10 16 0.00 0.00
5:53 am 05:53 Cloudy 66 18.9 60 15.6 81 81 S 13 20 30.10 1019 10 16 0.00 0.00
6:53 am 06:53 Cloudy with Light Rain 66 18.9 61 16.1 84 84 SSE 12 19 30.10 1019 10 16 0.00 0.00
7:53 am 07:53 Cloudy 66 18.9 61 16.1 84 84 SSE 10 17 30.10 1019 10 16 0.00 0.00
8:53 am 08:53 Cloudy 67 19.4 61 16.1 81 81 SSE 12 19 30.09 1019 10 16 0.00 0.00
9:53 am 09:53 Cloudy 68 20 62 16.7 81 81 S 14 22 30.11 1020 10 16 0.00 0.00
10:28 am 10:28 Cloudy with Light Rain 67 19.4 63 17.2 87 87 S 8 13 30.12 1020 7 11 0.00 0.00
10:53 am 10:53 Cloudy 67 19.4 63 17.2 87 87 S 14 22 30.12 1020 10 16 0.00 0.00
11:53 am 11:53 Cloudy with Light Rain 68 20 64 17.8 87 87 SSE 17 28 30.08 1019 10 16 0.00 0.00
12:53 pm 12:53 Cloudy with Light Rain 68 20 64 17.8 87 87 S 13 20 30.04 1017 7 11 0.00 0.00
1:06 pm 13:06 Cloudy with Light Rain 68 20 65 18.3 90 90 S 10 17 30.02 1017 3 5 0.01 0.25
1:23 pm 13:23 Cloudy with Light Rain 68 20 65 18.3 90 90 SSE 12 19 30.01 1016 3 5 0.02 0.51
1:44 pm 13:44 Cloudy with Light Rain 68 20 65 18.3 90 90 SSE 10 17 30.00 1016 3 5 0.03 0.76
1:47 pm 13:47 Cloudy with Light Rain 68 20 64 18 88 88 SSE 13 20 30.00 1016 4 6 0.03 0.76
1:53 pm 13:53 Cloudy with Light Rain 68 20 65 18.3 90 90 SSE 12 19 30.00 1016 9 14 0.03 0.76
2:53 pm 14:53 Cloudy 69 20.6 66 18.9 90 90 S 13 20 29.97 1015 10 16 0.00 0.00
3:13 pm 15:13 Cloudy 70 21.1 66 18.9 87 87 S 13 20 29.95 1014 10 16 0.00 0.00
3:20 pm 15:20 Cloudy 70 21.1 65 18.3 84 84 S 16 26 29.95 1014 10 16 0.00 0.00
3:53 pm 15:53 Cloudy 70 21.1 65 18.3 84 84 S 13 20 29.94 1014 10 16 0.00 0.00
4:53 pm 16:53 Cloudy 71 21.7 64 17.8 79 79 S 14 22 29.93 1013 10 16 0.00 0.00
5:20 pm 17:20 Cloudy with Nearby Thunderstorms 70 21.1 64 17.8 82 82 W 21 33 29.97 1015 10 16 0.00 0.00
5:26 pm 17:26 Cloudy with Nearby Thunderstorms 66 18.9 62 16.7 87 87 WSW 29 46 29.98 1015 3 5 0.09 2.29
5:29 pm 17:29 Cloudy with Nearby Thunderstorms 65 18.3 62 16.7 90 90 WSW 36 57 29.99 1016 1 1 0.33 8.38
5:36 pm 17:36 Cloudy with Heavy Rain 65 18.3 62 16.7 90 90 SSW 23 37 29.98 1015 1 1 0.46 11.68
5:39 pm 17:39 Cloudy with Nearby Thunderstorms 65 18.3 62 16.7 90 90 SW 20 31 29.99 1016 1 2 0.57 14.48
5:44 pm 17:44 Cloudy with Strong Thunderstorms 64 17.8 62 16.7 93 93 SW 22 35 29.99 1015 1 1 0.83 21.08
5:48 pm 17:48 Cloudy with Strong Thunderstorms 64 18 63 17 94 94 SSW 17 28 29.97 1015 1 2 0.88 22.35
5:53 pm 17:53 Cloudy with Strong Thunderstorms 65 18.3 62 16.7 90 90 S 16 26 29.97 1015 2 3 0.90 22.86
5:55 pm 17:55 Cloudy with Strong Thunderstorms 65 18.3 62 16.7 90 90 SSW 16 26 29.97 1015 3 5 0.02 0.51
6:02 pm 18:02 Cloudy with Strong Thunderstorms 65 18.3 62 16.7 90 90 SSW 22 35 29.98 1015 2 3 0.14 3.56
6:10 pm 18:10 Cloudy with Strong Thunderstorms 64 17.8 62 16.7 93 93 SSW 13 20 29.97 1015 2 3 0.26 6.60
6:14 pm 18:14 Cloudy with Thunderstorms 64 17.8 62 16.7 93 93 S 12 19 29.97 1015 3 5 0.27 6.86
6:27 pm 18:27 Cloudy with Rain 64 17.8 62 16.7 93 93 SSW 9 15 29.97 1015 5 8 0.32 8.13
6:53 pm 18:53 Cloudy with Rain 64 17.8 62 16.7 93 93 SSW 5 7 29.97 1015 7 11 0.42 10.67
7:02 pm 19:02 Mostly Cloudy with Light Rain 64 17.8 62 16.7 93 93 S 6 9 29.97 1015 7 11 0.01 0.25
7:21 pm 19:21 Mostly Cloudy 64 17.8 62 16.7 93 93 SSW 7 11 30.00 1016 10 16 0.02 0.51
7:28 pm 19:28 Mostly Cloudy 65 18.3 63 17.2 93 93 SSW 9 15 30.00 1016 10 16 0.02 0.51
7:53 pm 19:53 Cloudy with Light Rain 65 18.3 62 16.7 90 90 SSW 12 19 29.99 1016 10 16 0.02 0.51
8:15 pm 20:15 Cloudy 65 18.3 62 16.7 90 90 SSW 9 15 29.99 1016 10 16 0.00 0.00
8:53 pm 20:53 Cloudy 65 18.3 62 16.7 90 90 SSW 9 15 30.03 1017 10 16 0.00 0.00
9:48 pm 21:48 Cloudy 64 18 61 16 88 88 SSW 8 13 30.07 1018 10 16 0.00 0.00
9:53 pm 21:53 Cloudy 65 18.3 61 16.1 87 87 S 8 13 30.07 1018 10 16 0.00 0.00
10:31 pm 22:31 Cloudy with Light Rain 64 17.8 61 16.1 90 90 S 7 11 30.09 1019 10 16 0.01 0.25
10:53 pm 22:53 Partly Cloudy 64 17.8 60 15.6 87 87 SSW 7 11 30.10 1019 10 16 0.01 0.25
11:36 pm 23:36 Mostly Cloudy 63 17.2 60 15.6 90 90 SSW 6 9 30.12 1020 10 16 0.00 0.00
11:53 pm 23:53 Cloudy with Light Rain 61 16.1 52 11.1 72 72 W 9 15 30.13 1020 10 16 0.00 0.00

Powered by AerisWeather